Le nostre stazioni meteo in Italia

Pubblicità
Il mio iltempo24.it
Concordia Sagittaria, Italia (16107): Temperatura & dewpoint: 02.04.2020 01:00:00 - 08.04.2020 01:00:00 (CEST)Concordia Sagittaria, Italia (16107): velocità del vento: 02.04.2020 01:00:00 - 08.04.2020 01:00:00 (CEST)Concordia Sagittaria, Italia (16107): direzione del vento: 02.04.2020 01:00:00 - 08.04.2020 01:00:00 (CEST)Concordia Sagittaria, Italia (16107): reduced air pressure: 02.04.2020 01:00:00 - 08.04.2020 01:00:00 (CEST)Concordia Sagittaria, Italia (16107): precipitazioni: 02.04.2020 01:00:00 - 08.04.2020 01:00:00 (CEST)
Data & Tempo tt [°C] td [°C] ff [km/h] ff [kn] dd ppp [hPa] rr [mm]
08.04.2020 01:00:00 - - - - - - -
08.04.2020 00:00:00 - - - - - - -
07.04.2020 23:00:00 10,3 0,8 5 3 NNO 1034,4 -
07.04.2020 22:00:00 10,5 0,1 4 2 ONO 1034,2 -
07.04.2020 21:00:00 14,2 -0,4 2 1 SSO 1033,5 -
07.04.2020 20:00:00 17,5 0,1 8 4 S 1032,8 0,0
07.04.2020 19:00:00 21,8 0,3 4 2 NNE 1032,0 -
07.04.2020 18:00:00 22,8 -1,4 0 0 N 1031,8 -
07.04.2020 17:00:00 22,7 -2,1 4 2 NE 1031,9 -
07.04.2020 16:00:00 22,8 -0,7 4 2 SE 1032,2 -
07.04.2020 15:00:00 21,9 1,5 11 6 ENE 1032,7 -
07.04.2020 14:00:00 21,2 0,3 9 5 E 1033,4 0,0
07.04.2020 13:00:00 20,3 0,1 11 6 SE 1033,8 -
07.04.2020 12:00:00 19,4 -0,2 5 3 NE 1034,0 -
07.04.2020 11:00:00 18,4 0,0 11 6 NE 1034,0 -
07.04.2020 10:00:00 17,3 0,4 8 4 ENE 1033,9 -
07.04.2020 09:00:00 13,4 3,1 5 3 NNE 1033,6 -
07.04.2020 08:00:00 8,9 2,6 2 1 NO 1033,4 0,0
07.04.2020 07:00:00 6,8 -1,2 5 3 NNE 1033,1 -
07.04.2020 06:00:00 8,1 0,0 5 3 N 1032,8 -
07.04.2020 05:00:00 9,2 -0,5 8 4 N 1032,8 -
07.04.2020 04:00:00 9,3 0,1 9 5 N 1033,0 -
07.04.2020 03:00:00 10,1 0,0 8 4 NNO 1033,3 -
07.04.2020 02:00:00 10,7 0,6 9 5 N 1033,3 0,0
07.04.2020 01:00:00 11,7 0,7 9 5 NNE 1033,2 -
07.04.2020 00:00:00 13,3 3,6 15 8 NE 1032,6 -
06.04.2020 23:00:00 14,1 5,1 15 8 NE 1032,4 -
06.04.2020 22:00:00 14,2 4,7 15 8 NE 1032,0 -
06.04.2020 21:00:00 15,0 -0,1 11 6 NE 1031,3 -
06.04.2020 20:00:00 17,8 1,2 4 2 ENE 1030,0 0,0
06.04.2020 19:00:00 21,4 1,0 5 3 E 1029,5 -
06.04.2020 18:00:00 22,6 -0,2 11 6 ENE 1029,1 -
06.04.2020 17:00:00 23,1 1,4 15 8 NE 1029,3 -
06.04.2020 16:00:00 23,0 1,9 15 8 N 1029,7 -
06.04.2020 15:00:00 22,6 2,1 28 15 NE 1030,3 -
06.04.2020 14:00:00 22,2 1,7 24 13 NE 1030,5 0,0
06.04.2020 13:00:00 21,2 3,8 15 8 E 1030,8 -
06.04.2020 12:00:00 21,0 2,7 21 11 NE 1031,4 -
06.04.2020 11:00:00 19,8 4,6 26 14 NE 1031,7 -
06.04.2020 10:00:00 16,8 4,7 18 10 NNE 1031,7 -
06.04.2020 09:00:00 13,1 4,4 16 9 N 1031,4 -
06.04.2020 08:00:00 10,1 3,3 16 9 N 1031,1 0,0
06.04.2020 07:00:00 8,4 2,1 11 6 N 1030,6 -
06.04.2020 06:00:00 8,2 1,7 9 5 NNO 1030,2 -
06.04.2020 05:00:00 9,2 1,8 13 7 N 1030,0 -
06.04.2020 04:00:00 10,2 2,0 15 8 N 1030,2 -
06.04.2020 03:00:00 10,5 2,3 11 6 N 1030,3 -
06.04.2020 02:00:00 10,7 1,7 9 5 NNE 1030,4 0,0
06.04.2020 01:00:00 11,9 1,4 8 4 N 1030,1 -
06.04.2020 00:00:00 14,3 1,8 13 7 NE 1029,8 -
05.04.2020 23:00:00 16,1 1,7 24 13 NNE 1029,3 -
05.04.2020 22:00:00 16,0 1,6 28 15 NNE 1028,9 -
05.04.2020 21:00:00 16,1 1,7 22 12 NE 1028,1 -
05.04.2020 20:00:00 17,0 1,3 16 9 ENE 1027,2 0,0
05.04.2020 19:00:00 19,4 0,8 18 10 NE 1026,9 -
05.04.2020 18:00:00 20,6 0,9 29 16 NNE 1027,0 -
05.04.2020 17:00:00 21,4 1,0 24 13 NNE 1027,1 -
05.04.2020 16:00:00 21,3 2,0 28 15 NNE 1027,8 -
05.04.2020 15:00:00 20,9 1,1 24 13 NE 1028,4 -
05.04.2020 14:00:00 20,5 1,3 24 13 NNE 1029,0 0,0
05.04.2020 13:00:00 19,5 1,4 26 14 NNE 1029,7 -
05.04.2020 12:00:00 18,4 0,9 24 13 NE 1030,1 -
05.04.2020 11:00:00 17,3 1,6 22 12 NE 1030,3 -
05.04.2020 10:00:00 15,4 3,4 15 8 N 1030,6 -
05.04.2020 09:00:00 12,0 4,2 11 6 N 1030,5 -
05.04.2020 08:00:00 7,1 2,9 9 5 N 1030,2 0,0
05.04.2020 07:00:00 5,9 1,8 11 6 NNO 1029,9 -
05.04.2020 06:00:00 6,3 1,8 9 5 NNO 1029,5 -
05.04.2020 05:00:00 6,5 2,1 9 5 N 1029,4 -
05.04.2020 04:00:00 6,8 1,6 11 6 ONO 1029,3 -
05.04.2020 03:00:00 8,0 1,3 11 6 N 1029,6 -
05.04.2020 02:00:00 8,5 1,6 8 4 N 1029,6 0,0
05.04.2020 01:00:00 9,1 1,7 5 3 NNO 1029,3 -
05.04.2020 00:00:00 9,7 1,7 11 6 NNE 1028,8 -
04.04.2020 23:00:00 10,0 1,3 8 4 NE 1028,3 -
04.04.2020 22:00:00 12,5 2,5 5 3 E 1027,7 -
04.04.2020 21:00:00 11,9 2,0 15 8 E 1027,0 -
04.04.2020 20:00:00 13,8 2,0 2 1 S 1025,9 0,0
04.04.2020 19:00:00 17,2 1,5 9 5 SSE 1025,2 -
04.04.2020 18:00:00 18,4 1,7 5 3 SSE 1024,7 -
04.04.2020 17:00:00 19,0 2,3 9 5 ESE 1024,6 -
04.04.2020 16:00:00 19,8 2,1 5 3 ESE 1024,9 -
04.04.2020 15:00:00 19,4 1,3 0 0 N 1025,3 -
04.04.2020 14:00:00 18,4 2,6 9 5 O 1025,6 0,0
04.04.2020 13:00:00 18,1 2,7 9 5 NNO 1026,1 -
04.04.2020 12:00:00 17,3 2,0 8 4 ENE 1026,6 -
04.04.2020 11:00:00 16,3 3,6 9 5 E 1026,7 -
04.04.2020 10:00:00 14,5 4,4 15 8 NNE 1026,3 -
04.04.2020 09:00:00 11,4 5,0 11 6 NNO 1025,8 -
04.04.2020 08:00:00 7,7 4,2 8 4 NO 1025,3 0,0
04.04.2020 07:00:00 7,2 4,1 4 2 N 1024,6 -
04.04.2020 06:00:00 6,4 4,9 9 5 N 1024,1 -
04.04.2020 05:00:00 6,1 4,6 5 3 NO 1023,9 -
04.04.2020 04:00:00 5,7 4,2 8 4 NNO 1023,6 -
04.04.2020 03:00:00 4,9 3,4 9 5 N 1023,3 -
04.04.2020 02:00:00 5,4 3,9 5 3 NE 1022,8 0,0
04.04.2020 01:00:00 5,3 3,8 4 2 NE 1022,3 -
04.04.2020 00:00:00 5,2 3,7 4 2 NNE 1022,0 -
03.04.2020 23:00:00 5,4 3,5 0 0 N 1021,2 -
03.04.2020 22:00:00 7,2 3,8 2 1 SSE 1020,8 -
03.04.2020 21:00:00 9,6 5,1 4 2 S 1020,1 -
03.04.2020 20:00:00 12,7 5,3 9 5 S 1019,3 0,0
03.04.2020 19:00:00 15,3 4,6 8 4 S 1018,7 -
03.04.2020 18:00:00 16,8 4,4 5 3 SSO 1018,3 -
03.04.2020 17:00:00 17,3 4,2 5 3 SE 1018,2 -
03.04.2020 16:00:00 16,5 3,1 4 2 OSO 1018,4 -
03.04.2020 15:00:00 15,8 2,5 5 3 O 1018,9 -
03.04.2020 14:00:00 15,5 2,9 8 4 O 1019,4 0,0
03.04.2020 13:00:00 14,4 2,2 11 6 SO 1019,7 -
03.04.2020 12:00:00 13,3 3,0 2 1 O 1020,0 -
03.04.2020 11:00:00 11,6 5,8 2 1 E 1019,9 -
03.04.2020 10:00:00 8,1 5,0 5 3 NNO 1019,8 -
03.04.2020 09:00:00 5,2 3,7 8 4 N 1019,5 -
03.04.2020 08:00:00 2,0 0,5 5 3 N 1019,7 0,0
03.04.2020 07:00:00 1,1 -0,4 8 4 N 1018,8 -
03.04.2020 06:00:00 0,6 -0,9 4 2 NO 1018,5 -
03.04.2020 05:00:00 0,7 -0,8 0 0 N 1018,3 -
03.04.2020 04:00:00 1,2 -0,3 0 0 N 1018,0 -
03.04.2020 03:00:00 1,8 0,3 0 0 N 1018,2 -
03.04.2020 02:00:00 2,0 0,5 0 0 N 1018,3 0,0
03.04.2020 01:00:00 2,6 1,1 8 4 NE 1018,4 -
03.04.2020 00:00:00 3,3 1,5 4 2 ONO 1018,3 -
02.04.2020 23:00:00 3,8 0,6 0 0 N 1018,0 -
02.04.2020 22:00:00 6,4 2,0 4 2 SSE 1017,9 -
02.04.2020 21:00:00 7,0 0,1 4 2 SE 1017,7 -
02.04.2020 20:00:00 10,3 1,3 5 3 S 1016,9 0,0
02.04.2020 19:00:00 12,6 0,9 9 5 SSE 1016,9 -
02.04.2020 18:00:00 13,6 2,1 9 5 SSO 1017,0 -
02.04.2020 17:00:00 13,7 1,9 8 4 SSE 1017,6 -
02.04.2020 16:00:00 14,2 1,4 11 6 S 1018,0 -
02.04.2020 15:00:00 13,9 -0,7 5 3 SO 1018,7 -
02.04.2020 14:00:00 12,8 -2,0 11 6 O 1019,8 0,0
02.04.2020 13:00:00 11,4 -2,9 11 6 O 1020,4 -
02.04.2020 12:00:00 11,7 -1,2 5 3 ESE 1020,8 -
02.04.2020 11:00:00 10,5 -2,3 9 5 NE 1021,2 -
02.04.2020 10:00:00 8,3 -0,8 9 5 N 1021,5 -
02.04.2020 09:00:00 4,8 -0,3 13 7 NNE 1021,4 -
02.04.2020 08:00:00 1,1 -1,0 13 7 N 1021,5 0,0
02.04.2020 07:00:00 0,0 -2,6 9 5 NNO 1021,4 -
02.04.2020 06:00:00 0,3 -2,0 5 3 NNO 1021,4 -
02.04.2020 05:00:00 0,5 -1,3 8 4 N 1021,8 -
02.04.2020 04:00:00 -0,3 -2,2 2 1 ESE 1022,1 -
02.04.2020 03:00:00 0,7 -2,7 4 2 ESE 1022,7 -
02.04.2020 02:00:00 1,7 -1,6 4 2 ENE 1023,2 0,0
02.04.2020 01:00:00 2,6 -1,3 4 2 ENE 1023,6 -

tt = Temperatura
td = dewpoint
ff = velocità del vento
dd = direzione del vento
ppp = reduced air pressure
rr = precipitazioni

Stazioni seguenti

WeatherPro
AMSI
MeteoEarth